TNCC

Details ICAO TNCC (CUR)
Name Hato International Airport
Region Caribbean Netherlands, Aruba, Curaçao, Sint Maarten
Timezone Unknown
Plans Departing 566
Arriving 604
Stats Elevation 29 ft / 9 m (AMSL)
Location 12.188800° -68.959800°
Runways 1
Magnetic Variation 11.444° W
Sunrise 2019-02-21 10:56:46 UTC / 2019-02-21 10:56:46 Local
Sunset 2019-02-21 22:45:09 UTC / 2019-02-21 22:45:09 Local
Advertisement - Login to hide

Runways

ID Width Length Bearing (true/mag) Surface Threshold Overrun Markings Lighting
11 197 ft / 60 m 11,211 ft / 3,417 m 102.19° / 113.64° ASPHALT 2,730 ft / 832 m 0 ft / 0 m PREC-APP CENTERLINE EDGE THRESHOLD ALSF-I
29 197 ft / 60 m 11,211 ft / 3,417 m 282.20° / 293.65° ASPHALT 0 ft / 0 m 0 ft / 0 m PREC-APP CENTERLINE EDGE THRESHOLD ALSF-I

Approach Navaids

Runway Type Ident Frequency Range Bearing (true/mag) Slope Elevation
11 GS IATO 111.90 MHz 10 nm / 19 km 102.48° / 113.93° 3.00° 29 ft / 9 m (AMSL)
11 DME IATO 111.90 MHz 18 nm / 33 km - - 29 ft / 9 m (AMSL)
11 LOC-ILS IATO 111.90 MHz 18 nm / 33 km 102.23° / 113.67° - 29 ft / 9 m (AMSL)

Map

Weather


0- 5 10 15 20 25 30 35+ Temperature / °C

Clouds and Precipitation
Forecast for 2019-02-21 18:00 UTC. Updated 39 minutes ago

Ground ~20,000 ft ~40,000 ft Winds

METAR

TNCC 211500Z AUTO 11016KT 9999 NSC 29/19 Q1016 NOSIG

TAF

Not found

Frequencies

Tower 118.30 MHz
Approach 119.60 MHz
Warning: Do not use this data for real-world aviation or navigation. No guarantee of current accuracy is given.